Theta_e
307 306 306 306 306 305 305 305 305 305 305 305 305 305 304 306 308 310 311 310 307 305 304 303 303 303 303 303 302 302 302 302 302 301 301 301 301 301 301 300 301 301 301 301 300 300 300 300 300 300 300 300 300 300 299 299 299 299 298 299 299 299 299 298 298 298 298 298 299 299 299 300 300 300
306 306 306 305 305 305 305 304 304 304 305 305 304 305 304 304 305 307 308 309 307 304 304 304 303 303 303 303 303 302 302 302 302 301 301 301 301 300 300 300 301 301 301 300 300 300 300 300 300 300 300 300 300 300 299 299 299 299 298 299 299 298 298 297 297 297 297 297 298 298 298 299 299 299
306 306 306 305 305 305 305 304 305 304 304 305 304 304 304 304 304 304 305 307 305 304 304 304 303 303 303 303 303 302 302 302 301 301 301 301 300 300 300 300 300 300 300 300 300 300 300 300 300 300 301 300 300 300 299 299 299 298 298 298 297 297 297 297 297 297 297 297 297 298 298 298 299 299
306 306 306 306 306 305 305 304 304 304 304 304 304 304 304 304 304 303 303 305 305 303 303 304 303 303 303 302 302 302 302 301 301 301 301 300 300 300 300 300 300 299 299 300 300 300 300 300 301 301 301 300 300 299 299 299 298 298 297 297 297 297 296 296 296 297 297 297 297 298 298 298 298 299
305 305 305 305 305 305 305 304 304 304 305 305 304 304 304 304 303 303 302 303 304 303 303 304 303 303 303 302 302 301 301 301 301 301 300 299 300 300 300 299 299 299 299 300 300 300 301 301 301 301 300 300 300 299 299 298 298 298 298 297 297 297 296 296 296 296 297 297 297 297 298 298 298 298
305 304 304 305 305 305 305 304 304 304 305 305 304 303 303 303 303 303 303 303 304 304 303 303 302 302 302 302 301 301 301 301 301 300 299 299 299 299 299 298 299 299 299 300 300 301 301 301 301 300 300 299 299 299 298 298 298 298 298 298 297 297 297 296 297 296 297 297 297 297 297 297 298 298
305 305 305 305 305 305 305 305 304 303 304 305 305 304 303 303 303 303 302 302 303 303 303 302 302 302 301 301 301 301 301 300 300 299 299 299 299 298 298 298 299 299 299 300 300 301 301 301 300 300 299 298 298 298 297 297 297 297 297 298 297 297 297 297 297 297 297 297 297 297 297 297 297 297
305 305 305 305 305 306 305 304 303 303 303 304 304 304 303 302 302 301 301 301 302 302 302 301 301 301 301 301 300 300 300 300 299 299 299 299 298 297 297 298 299 299 299 300 300 301 301 301 300 299 299 298 298 297 297 297 297 297 297 297 297 297 297 297 297 297 297 296 296 296 296 296 296 297
305 305 305 305 305 306 305 304 303 302 302 303 303 303 302 301 300 300 300 300 300 300 301 301 300 300 300 300 300 300 300 299 298 299 298 297 297 297 297 298 299 299 300 300 301 301 301 300 300 299 299 299 298 297 297 296 296 296 296 297 297 297 297 297 297 297 297 297 296 296 296 296 296 297
305 305 305 305 305 305 304 303 301 300 301 302 302 301 300 299 299 299 299 299 299 299 300 300 300 299 299 300 300 300 299 298 298 298 297 297 296 297 298 298 299 299 299 300 301 301 301 300 300 299 299 299 298 297 296 296 296 296 296 296 297 296 296 296 296 296 296 296 296 296 296 296 296 297
304 305 305 304 303 303 303 302 300 298 298 300 300 299 298 298 298 298 298 299 299 299 299 299 299 299 299 299 299 299 298 298 298 297 297 297 297 297 298 298 299 299 299 300 300 300 300 300 300 299 299 298 298 297 296 295 295 295 295 296 295 295 295 295 295 296 295 295 295 295 295 296 296 296
304 305 304 303 302 301 301 300 297 294 294 296 297 296 295 295 296 297 297 298 298 298 298 298 298 298 299 299 299 298 298 298 298 297 297 297 297 298 298 298 298 299 300 300 300 300 300 301 300 299 299 298 297 297 296 295 295 294 294 294 294 294 294 294 294 295 295 295 295 295 295 295 295 295
305 305 304 302 300 297 295 295 294 294 295 295 295 295 295 296 297 297 297 298 298 297 297 297 297 298 299 299 298 298 298 298 297 297 297 297 298 298 298 297 298 299 300 300 300 300 301 300 300 299 299 298 297 297 296 295 294 294 293 293 293 293 293 293 293 294 294 294 294 294 295 295 295 295
305 305 304 301 298 294 293 294 297 299 299 298 298 298 299 299 299 298 298 298 299 298 298 297 297 298 299 299 298 298 298 298 297 297 297 298 298 297 297 297 298 298 299 300 300 300 301 300 300 299 298 298 297 297 296 295 294 294 293 293 293 292 293 293 293 293 294 294 294 294 294 294 294 295
305 305 304 302 300 299 296 295 299 301 300 299 299 299 300 300 300 299 298 298 299 299 298 298 298 298 299 299 298 298 298 298 298 298 298 298 298 297 297 297 298 298 299 300 300 300 300 300 300 299 298 298 297 297 296 295 294 294 294 293 293 292 292 292 292 293 293 294 294 294 294 294 294 294
305 305 305 304 303 302 298 297 300 301 300 300 300 299 301 302 301 301 300 299 299 299 298 298 298 299 299 299 299 299 299 299 299 299 298 298 298 297 297 297 298 298 299 300 300 300 300 300 299 299 298 298 297 297 296 296 295 294 294 293 293 292 292 292 292 293 293 294 294 294 294 294 294 294
306 305 305 304 303 303 301 300 301 300 298 298 299 300 302 303 303 303 303 302 300 299 298 298 298 299 299 299 299 299 299 299 299 299 299 298 298 297 297 298 298 299 299 299 300 300 300 300 299 299 298 298 297 297 297 296 295 295 294 293 293 292 292 292 293 293 294 294 294 294 294 294 294 294
307 306 305 304 303 303 303 303 302 299 295 295 298 301 303 304 303 303 303 303 301 300 299 299 298 298 298 298 299 299 299 300 299 299 299 298 298 298 298 298 298 299 299 298 300 300 300 299 299 299 298 298 297 297 296 296 295 295 294 293 293 292 292 292 293 293 294 295 296 296 294 294 294 294
306 305 305 305 304 303 303 303 303 299 294 294 299 303 303 303 302 303 303 303 301 299 299 298 298 298 298 299 300 300 300 300 299 299 298 298 298 298 298 298 298 298 298 298 300 300 300 299 299 299 298 297 297 297 296 296 296 295 294 293 293 292 292 292 293 293 294 295 296 297 296 294 294 294
305 305 305 304 303 303 303 303 303 299 293 294 300 302 302 302 302 303 302 301 299 297 298 298 298 299 300 300 300 300 299 299 299 298 298 298 298 298 298 298 298 298 297 298 300 301 300 299 299 299 298 297 297 297 296 296 296 295 294 293 293 292 292 292 292 293 295 295 296 297 297 295 294 294
305 305 304 303 302 303 303 303 303 299 294 294 299 301 301 301 302 302 301 299 297 297 298 299 300 300 301 300 300 299 299 299 298 298 298 298 298 298 298 298 297 297 297 298 299 300 300 299 299 298 298 297 297 297 296 296 295 295 294 293 292 292 292 292 293 293 295 296 297 298 297 296 295 295
304 305 304 302 302 303 303 303 302 298 294 294 297 298 299 301 302 301 299 297 297 299 299 299 300 301 300 300 299 299 299 299 298 298 298 298 298 298 298 297 297 297 297 297 298 299 299 299 299 298 297 297 297 296 296 296 295 294 293 293 292 292 293 293 294 294 295 296 297 298 298 297 296 295
304 305 304 302 302 303 303 303 301 296 294 294 295 295 297 300 301 300 297 297 298 299 299 299 300 301 300 300 300 299 299 299 299 299 298 298 298 298 298 297 297 297 297 297 298 298 299 299 300 299 297 297 297 296 296 296 295 294 293 293 292 293 293 294 295 296 297 298 298 299 299 298 297 296
304 304 304 302 300 300 301 301 298 295 294 295 295 295 295 298 298 297 297 298 298 298 299 300 301 301 300 300 300 300 300 300 300 299 299 298 298 298 298 298 297 297 297 297 297 298 298 300 300 299 298 297 297 296 296 295 295 294 293 293 293 293 294 294 295 297 298 299 300 300 300 300 298 296
304 304 303 301 298 296 296 296 295 294 295 295 295 295 295 295 295 296 297 298 298 299 299 301 301 300 300 300 300 300 300 300 300 300 299 299 299 298 298 298 298 297 297 297 297 297 298 299 300 299 298 297 296 296 295 295 295 294 293 293 293 293 293 294 295 297 299 300 301 302 302 301 300 298
303 303 303 302 299 297 297 296 295 294 295 295 295 295 294 295 295 296 297 298 298 299 300 301 301 300 300 300 300 300 300 300 300 300 299 299 299 299 298 298 298 297 297 297 297 297 298 299 299 299 298 297 296 295 295 295 295 294 294 294 293 293 293 294 295 296 298 301 302 303 303 303 301 299
303 302 302 302 301 300 300 299 297 295 295 295 295 296 296 296 297 297 298 298 299 299 300 301 300 300 300 300 300 300 300 300 300 300 300 299 299 299 298 298 298 297 297 296 296 297 298 298 298 299 299 297 296 294 294 294 294 294 294 294 294 294 294 294 294 296 298 301 303 303 303 302 300 298
302 303 303 302 302 301 301 300 297 295 294 295 295 297 298 298 298 298 298 299 300 300 301 301 300 300 300 300 300 300 300 300 300 300 300 300 299 299 298 298 298 297 297 296 297 297 297 298 298 298 298 297 296 294 293 293 293 294 294 294 294 294 294 294 294 295 299 303 304 303 302 301 299 297
301 302 302 302 301 301 300 299 296 295 294 295 296 298 299 299 299 299 298 299 300 300 301 301 300 300 300 300 300 300 300 300 300 300 300 300 299 299 299 298 298 297 297 297 297 297 297 297 298 298 297 297 296 294 293 292 293 294 294 294 294 294 294 294 294 295 300 304 304 302 301 300 299 297
301 300 300 301 300 300 300 298 296 295 295 296 298 299 300 300 300 299 299 300 301 301 301 301 300 300 300 300 300 300 300 300 300 300 300 300 300 299 299 298 298 298 297 297 297 297 297 297 297 297 297 297 296 295 294 293 293 294 294 294 294 294 294 294 295 296 300 303 304 302 301 301 299 297
300 300 299 300 300 300 299 297 295 295 296 298 299 300 300 300 301 301 301 301 301 301 301 300 300 300 300 300 300 300 300 300 300 300 300 300 300 300 299 299 298 298 298 298 297 297 297 297 297 297 297 297 296 296 295 293 293 294 294 294 294 294 294 294 294 296 298 301 302 301 300 300 299 299
300 299 299 299 298 297 296 295 295 296 297 299 301 301 301 301 302 302 302 301 301 301 301 300 300 300 300 300 300 300 300 300 300 300 300 300 300 300 299 299 298 298 298 298 298 297 297 297 297 297 297 297 296 296 295 294 293 294 294 294 294 294 294 294 294 294 296 298 300 300 298 298 298 299
298 298 298 298 298 297 297 297 298 298 300 301 302 303 302 302 302 301 301 301 301 301 301 300 300 300 300 300 300 300 300 300 299 300 300 300 299 300 300 299 299 298 298 298 298 298 297 297 297 297 297 297 296 296 295 294 294 294 294 294 293 294 294 294 293 294 295 296 297 297 297 297 296 296
298 298 298 299 299 300 300 300 300 301 302 302 303 302 302 302 301 301 301 301 300 300 301 301 301 301 300 300 300 300 299 299 300 300 300 299 300 300 300 299 299 298 298 298 298 298 298 297 297 297 297 297 296 296 296 294 294 294 294 293 293 293 294 294 294 293 294 294 295 295 295 295 295 295
296 298 299 299 300 300 300 300 300 301 301 302 302 302 301 301 301 301 301 301 300 300 301 301 301 300 300 300 300 299 299 299 300 300 300 299 300 300 299 299 299 298 298 298 298 298 298 298 297 297 297 296 296 296 296 295 294 294 294 294 293 293 294 294 294 294 293 293 293 293 293 293 294 295
296 298 298 298 298 297 297 298 299 299 299 301 301 302 301 301 302 302 301 301 300 301 301 301 301 300 300 300 299 299 299 300 299 299 300 300 300 299 299 299 299 298 298 299 299 298 298 298 298 297 296 296 296 296 296 296 295 295 294 293 293 294 294 294 295 294 294 293 292 292 292 292 292 294
296 296 296 296 296 296 296 297 297 298 299 301 301 301 301 302 302 302 302 301 301 301 301 301 300 300 299 299 299 299 300 300 300 300 300 300 300 300 299 299 298 298 298 299 299 298 298 298 298 297 296 296 297 297 296 296 296 295 294 294 294 294 294 294 294 294 294 293 292 292 292 291 291 293
296 295 294 295 295 296 297 297 298 299 300 301 302 302 302 302 302 302 302 302 301 301 301 301 300 299 299 299 299 299 300 300 299 299 300 299 300 299 299 299 298 298 298 299 298 298 299 298 298 297 297 296 297 297 297 296 296 296 295 294 294 294 294 294 294 294 294 294 293 292 292 292 291 292
296 296 296 296 295 296 296 297 298 299 301 302 302 302 302 302 302 302 302 302 301 301 301 300 299 299 299 299 299 300 300 299 299 299 299 299 299 299 299 299 299 298 298 299 298 298 298 298 298 298 297 297 297 297 297 296 296 296 295 294 294 294 294 294 294 294 294 294 294 294 293 293 292 292
298 298 298 298 297 297 297 297 298 299 301 302 303 302 302 302 302 302 302 301 301 301 300 299 299 299 299 299 300 300 299 299 299 299 299 299 299 299 299 299 299 298 299 298 298 298 299 298 298 298 298 298 298 297 297 297 297 296 296 295 294 294 294 294 295 295 294 294 294 294 294 294 293 293
298 298 298 297 297 297 298 298 299 300 302 302 303 303 303 303 303 303 302 301 301 301 300 299 299 299 299 300 300 299 299 299 299 299 299 299 299 299 299 299 299 299 298 298 298 298 299 299 298 298 298 298 298 298 297 297 296 296 296 296 295 294 294 294 295 295 295 294 294 294 294 294 294 293
299 299 298 298 297 297 297 297 298 300 301 302 302 303 303 303 303 303 302 301 301 300 300 300 300 299 299 299 299 299 299 299 299 299 299 299 299 299 299 299 299 299 299 298 298 298 299 299 298 298 298 298 298 297 296 296 296 297 297 296 296 295 294 294 294 295 295 295 294 293 293 294 294 293
300 300 300 299 299 298 297 297 298 299 301 302 303 303 303 303 303 302 302 301 301 300 300 300 299 299 299 299 299 299 299 299 299 299 299 299 299 299 299 299 299 299 299 299 298 299 299 298 298 298 298 298 298 297 297 297 297 297 297 297 296 296 296 295 295 295 295 295 294 294 294 294 294 293
301 301 301 300 300 299 299 298 299 300 302 303 303 303 303 303 303 302 301 301 301 300 300 299 299 299 299 299 299 299 299 299 299 299 299 299 299 299 299 299 299 299 299 299 299 299 298 298 298 298 298 298 298 298 298 297 298 298 297 297 297 297 296 296 295 295 295 295 295 294 295 294 294 293
301 301 301 300 300 299 299 300 300 302 302 303 303 303 303 303 302 302 301 301 300 300 299 299 299 299 299 299 299 299 299 299 299 299 299 299 299 299 299 299 299 299 299 299 298 298 298 298 298 298 298 298 298 298 298 298 298 298 298 297 297 297 297 296 296 296 295 295 295 295 295 295 295 294
Wind_Speed
11 10 9 9 10 10 10 11 10 9 9 9 9 10 11 9 6 3 3 4 6 9 12 13 13 15 17 18 20 22 22 23 23 25 28 30 31 32 33 34 34 33 33 32 32 32 31 33 36 37 36 34 32 31 30 30 30 31 32 30 28 29 30 30 29 28 27 28 27 27 26 26 26 26
10 9 9 9 10 11 10 10 9 9 8 8 8 8 8 9 7 5 4 4 7 11 14 14 16 19 20 20 22 23 22 23 24 26 29 30 31 33 34 34 32 32 33 32 32 32 33 35 37 36 34 32 32 32 31 31 31 31 31 30 29 31 30 29 28 27 27 28 28 28 27 27 27 26
9 9 9 9 10 10 9 9 8 8 8 8 8 7 6 6 6 6 6 4 6 12 16 17 19 20 21 22 22 22 23 23 25 27 29 30 32 34 34 33 32 32 33 32 32 32 33 35 34 33 33 34 34 34 33 32 32 31 31 31 31 32 31 30 29 28 27 27 27 28 28 27 27 27
8 8 8 8 8 8 7 7 6 6 7 7 7 7 6 6 6 8 8 6 10 16 16 17 20 21 21 22 22 23 24 24 25 27 28 31 33 34 34 32 32 34 33 32 31 31 33 33 30 32 35 37 38 37 36 35 33 33 33 32 33 32 31 31 30 30 28 27 27 27 27 27 27 27
8 8 8 8 8 8 7 6 6 5 6 6 6 7 7 7 7 9 10 9 12 18 19 18 21 22 21 22 22 23 24 25 25 26 29 32 33 34 34 33 34 34 33 32 31 31 33 30 28 33 37 40 42 41 40 39 38 37 36 35 35 33 31 30 30 30 29 28 26 26 27 27 27 27
9 9 9 8 7 7 6 6 6 6 6 6 6 7 7 8 8 9 11 12 12 17 21 22 22 22 21 23 23 23 23 24 25 27 30 32 31 34 35 34 34 34 33 32 31 31 30 25 27 33 36 42 45 45 44 43 41 39 37 36 34 31 30 29 28 28 28 28 26 26 26 27 27 27
9 9 8 7 6 5 5 4 5 5 5 6 6 6 7 8 9 9 11 13 14 17 21 22 22 22 22 23 22 22 23 23 24 28 30 30 31 35 36 34 33 33 34 32 31 30 26 22 28 32 35 41 44 44 44 44 42 41 39 36 33 30 29 28 28 27 26 26 26 26 25 25 25 26
8 8 8 6 5 4 4 4 4 4 5 5 5 6 7 8 10 11 11 13 15 17 19 22 22 22 23 22 22 22 22 22 25 27 28 29 33 36 36 34 32 33 33 31 31 29 23 23 31 33 35 41 43 43 45 44 42 40 39 37 35 32 30 30 29 27 25 24 24 25 25 25 25 25
8 8 7 6 5 4 3 3 3 4 5 5 5 6 7 8 10 12 12 13 15 17 19 22 22 22 22 21 22 22 22 25 27 26 26 29 33 35 35 34 32 33 33 32 31 28 24 27 33 34 37 41 42 44 48 45 40 38 37 35 32 28 28 28 27 25 23 22 22 22 23 24 24 25
8 8 7 6 5 4 3 3 3 3 3 4 5 6 7 8 10 11 13 14 15 17 19 20 22 22 21 22 22 21 22 26 27 26 27 30 33 34 35 35 33 32 33 32 31 28 27 30 33 35 37 39 40 45 49 44 37 35 34 32 30 30 30 29 26 24 23 22 22 21 21 21 22 23
8 7 6 5 5 4 4 3 1 0 1 1 3 5 6 7 9 11 13 14 15 17 18 19 21 21 21 21 21 21 24 25 24 25 28 30 32 33 35 36 34 33 33 31 30 31 29 30 33 34 35 37 40 45 46 40 35 32 32 33 35 36 34 30 26 25 24 24 24 23 22 22 22 22
8 7 6 6 5 4 4 3 1 2 2 2 3 4 5 6 8 10 11 13 15 16 17 18 20 20 21 21 21 23 25 22 22 26 28 29 32 34 35 37 34 33 32 31 33 34 30 30 33 33 33 37 42 44 41 35 32 32 34 37 38 37 36 33 30 28 26 25 25 24 23 22 22 22
8 7 7 6 4 3 3 4 3 5 5 5 5 6 6 7 8 9 10 11 13 15 16 17 19 20 20 20 21 23 23 22 24 29 29 29 31 33 35 36 34 31 30 32 36 35 31 31 32 31 34 38 41 43 39 34 32 35 37 38 38 37 36 35 33 30 28 27 26 25 25 23 22 23
8 8 8 6 2 1 3 3 2 4 4 5 6 7 8 8 9 9 9 10 11 13 15 16 18 18 18 20 22 22 23 24 26 29 29 29 31 33 31 31 33 31 30 33 36 35 31 30 30 32 35 37 40 43 40 36 36 38 38 38 38 37 35 33 32 31 29 27 26 26 26 25 24 23
9 9 9 6 2 2 2 1 2 4 5 7 7 8 8 9 11 12 11 12 12 12 14 16 18 18 19 21 23 23 24 25 27 29 29 29 30 30 26 25 29 33 34 34 34 33 32 30 29 33 35 36 40 43 41 39 40 40 38 37 37 36 34 32 32 30 28 26 26 25 25 26 26 25
10 9 8 6 3 2 2 2 4 5 6 7 9 9 9 10 12 13 14 15 14 13 14 17 18 18 19 22 24 25 25 27 28 29 29 29 29 30 28 25 28 36 39 35 31 32 32 29 29 33 34 35 41 45 44 42 41 40 38 37 37 35 32 30 29 28 26 26 27 27 26 26 27 27
12 12 9 6 5 5 5 3 4 5 5 6 8 8 9 12 12 12 14 15 15 14 15 17 19 20 21 23 26 27 27 28 30 28 28 30 30 30 31 30 33 38 38 34 30 30 31 30 29 33 35 36 42 47 46 43 41 40 40 38 37 35 32 30 27 25 25 26 28 30 28 26 26 27
11 11 10 8 7 8 7 6 7 7 7 7 6 6 9 11 12 13 14 13 12 13 14 17 20 23 24 25 27 29 29 30 30 30 31 32 32 32 32 33 36 36 34 34 29 25 28 31 30 34 37 37 42 48 46 42 41 41 41 39 37 35 33 30 27 25 25 26 27 27 26 25 24 26
9 9 8 7 7 7 8 9 9 9 8 6 3 6 9 10 11 12 12 9 9 12 15 17 21 23 24 25 27 29 30 30 30 31 31 32 31 31 32 33 35 32 33 35 26 20 28 33 29 32 38 37 43 48 44 42 43 42 41 38 36 37 35 30 26 24 23 25 25 24 23 24 23 23
9 9 9 8 7 6 8 10 10 9 8 4 4 7 9 9 10 10 9 9 12 15 16 17 19 21 22 24 26 28 28 28 28 28 28 29 29 29 28 28 31 32 34 35 27 21 29 33 27 30 37 40 44 46 43 43 45 42 40 37 36 38 35 30 26 22 20 22 24 21 19 21 21 21
10 10 10 10 8 8 10 10 9 9 7 4 4 7 8 9 9 9 9 13 15 14 14 16 18 20 22 23 24 26 26 26 27 26 26 28 30 28 22 20 27 33 33 33 29 24 28 32 29 27 32 39 43 43 43 47 46 41 40 40 39 37 34 29 26 21 19 19 19 18 16 19 20 19
11 11 12 12 9 8 10 9 9 8 6 3 4 6 8 9 9 10 13 15 14 13 15 19 19 19 21 22 23 24 25 25 27 27 27 29 29 26 22 21 27 30 31 33 32 26 28 34 33 27 26 32 39 41 43 48 47 43 43 44 41 38 33 29 24 19 16 16 16 16 15 16 18 18
11 13 14 15 13 11 9 8 8 7 5 3 4 6 7 8 10 12 13 15 15 17 21 21 20 19 20 20 21 23 24 26 27 28 29 30 28 25 26 27 24 19 23 34 36 29 29 33 32 27 21 19 29 42 47 47 46 46 47 46 42 39 35 29 24 21 19 17 15 15 15 14 17 19
12 13 14 15 16 16 14 11 9 8 5 4 5 6 6 8 10 11 12 14 16 20 23 21 18 18 19 20 21 22 25 27 28 28 29 30 29 28 28 29 25 18 24 37 39 33 31 30 29 28 22 13 20 37 46 45 44 45 46 45 42 38 35 31 27 25 21 17 15 15 15 14 16 20
13 14 14 13 13 15 15 12 10 8 6 5 6 6 7 8 9 10 13 15 17 20 21 18 17 18 19 20 21 23 25 27 28 28 30 31 31 31 29 29 28 27 31 38 39 36 34 30 27 28 26 21 22 32 39 42 44 44 43 42 41 38 35 32 30 27 22 16 14 15 15 14 15 18
14 15 15 15 13 13 12 9 8 8 7 7 6 6 7 8 9 10 14 16 18 19 19 17 16 18 19 20 21 23 26 28 27 28 31 31 32 32 32 31 30 30 33 37 39 37 33 31 30 28 25 24 25 28 32 37 45 49 48 45 42 36 33 33 32 29 25 20 18 17 12 10 11 15
12 15 16 17 15 14 12 9 8 9 9 9 7 6 7 7 9 11 14 17 18 18 17 16 16 18 19 20 21 24 27 28 27 28 31 32 33 34 34 34 32 31 32 36 37 35 32 32 33 30 26 23 22 21 23 29 40 47 48 47 45 37 34 36 35 32 28 23 19 16 8 5 6 11
7 11 13 14 14 13 11 9 9 10 11 10 8 7 7 9 11 13 16 18 17 14 14 14 15 17 18 19 21 24 26 26 26 28 30 32 33 34 35 36 34 31 32 36 35 33 32 33 33 31 29 24 17 15 19 26 35 40 41 44 44 39 38 40 37 34 30 22 16 12 5 2 3 9
3 7 10 11 12 11 9 9 10 12 12 11 10 10 11 12 14 15 18 18 14 12 13 12 13 16 18 19 21 24 24 24 25 28 30 30 32 33 35 37 36 33 35 36 34 32 33 34 33 33 32 26 17 15 19 24 33 38 38 39 39 38 41 43 39 37 33 23 12 8 7 7 3 4
4 6 9 9 9 9 9 11 12 12 12 11 12 13 14 15 16 17 18 18 14 12 12 10 12 16 17 18 21 23 22 23 26 27 28 29 31 32 33 35 36 37 38 37 34 34 35 33 32 34 34 27 19 19 20 22 30 37 39 39 37 35 41 46 42 40 38 27 16 12 11 11 10 5
8 6 7 8 9 10 12 13 13 13 13 12 14 15 15 17 18 17 16 16 15 14 12 8 12 16 16 17 21 22 20 22 26 27 26 28 30 30 30 30 32 36 40 38 36 36 36 33 33 35 35 27 20 18 20 22 26 33 37 40 36 33 37 44 43 41 37 29 23 23 22 19 18 13
11 8 8 10 11 12 13 14 14 14 14 16 18 18 17 19 18 15 14 14 14 14 11 8 12 15 15 16 20 20 19 22 25 25 25 27 29 29 28 27 28 32 36 37 38 39 38 35 33 34 34 29 21 18 20 21 24 30 35 39 39 38 40 41 39 38 36 30 26 24 24 26 26 22
11 9 9 10 10 12 13 14 15 15 17 19 19 17 16 15 12 11 11 11 11 11 9 9 13 14 14 16 18 17 19 22 24 23 24 27 28 27 26 26 27 30 32 32 35 39 39 37 36 35 33 29 23 19 18 20 24 30 35 36 37 40 42 40 36 35 34 30 24 21 22 25 27 27
13 11 11 12 12 13 14 16 17 18 19 18 15 13 12 11 10 11 12 11 11 11 10 12 13 13 13 15 15 16 19 21 22 22 23 25 26 25 25 25 27 30 31 30 33 36 36 36 38 37 33 29 25 20 18 17 21 29 34 34 34 37 40 41 37 34 32 28 23 21 21 23 25 25
16 12 11 12 13 14 15 16 17 17 18 16 13 12 12 12 12 12 12 12 12 12 12 12 12 11 12 13 13 16 18 19 20 22 22 22 24 24 25 25 27 30 30 28 31 35 34 33 36 35 32 29 24 19 18 18 21 28 33 31 31 34 38 39 36 33 34 33 27 22 22 24 26 25
19 16 13 13 14 14 15 16 16 17 18 17 14 12 13 14 14 14 14 14 14 13 12 12 11 10 11 12 14 17 18 18 21 21 19 20 22 23 25 26 28 30 29 27 30 34 32 31 33 30 25 21 16 13 16 20 23 28 31 28 27 31 35 37 37 37 36 34 31 26 21 21 25 25
17 16 15 15 16 16 17 17 17 18 19 18 16 14 15 15 14 13 13 13 12 12 13 11 8 8 11 13 16 18 19 19 19 18 18 20 22 22 23 26 28 29 28 27 31 33 30 30 32 29 20 13 9 10 17 25 26 27 29 28 27 29 31 34 37 38 35 31 30 27 21 20 25 25
16 15 16 16 16 16 16 17 18 19 20 18 16 14 13 13 13 13 13 12 12 12 11 7 5 8 12 15 17 19 19 18 17 16 18 19 20 21 23 25 27 29 28 28 31 33 29 27 31 30 22 12 7 8 15 23 26 26 27 28 27 26 28 31 32 32 33 31 29 27 23 22 25 25
16 16 17 17 18 18 17 18 19 21 20 17 14 13 13 13 14 13 13 12 12 11 8 5 6 11 15 17 19 20 17 15 15 17 18 17 18 22 25 26 27 27 26 27 31 32 29 27 30 33 29 21 15 17 21 24 24 23 25 26 26 24 26 29 30 30 32 32 29 27 26 27 28 30
19 19 18 18 17 18 18 19 20 21 19 16 15 14 15 14 14 13 12 11 10 8 6 6 10 16 19 22 22 18 14 14 16 17 16 16 20 24 26 26 25 24 24 26 29 30 29 28 30 34 33 28 25 28 30 26 22 22 24 26 25 22 21 25 29 30 31 31 29 26 27 29 30 32
21 21 22 21 20 20 19 20 21 21 18 16 14 14 14 14 14 15 14 13 12 11 10 11 15 19 21 21 18 14 13 15 17 16 16 18 23 25 24 22 23 24 23 24 27 28 29 30 31 33 32 30 28 29 26 20 18 21 25 26 25 22 19 20 24 28 29 31 30 26 23 22 24 29
19 20 21 22 22 22 22 21 22 21 18 16 15 15 15 15 14 13 12 11 12 12 14 14 15 16 16 15 13 13 14 15 15 16 19 23 24 23 20 20 23 25 24 24 26 28 30 31 32 32 32 31 28 23 18 16 18 21 25 27 27 24 20 17 18 22 26 29 30 27 23 20 18 22
18 19 21 21 21 22 21 21 22 22 20 17 16 15 15 14 14 13 11 11 11 12 13 13 13 14 14 13 13 14 15 14 15 19 22 24 22 19 18 20 22 24 24 25 27 29 30 32 32 31 31 32 29 22 19 23 24 23 23 27 28 27 23 19 16 17 22 25 26 26 27 25 20 16
18 20 21 21 21 21 21 21 22 21 19 16 15 15 15 15 14 13 12 12 12 13 14 14 15 15 15 15 16 16 15 15 17 20 22 21 19 18 19 20 21 22 23 25 26 28 30 32 32 29 28 30 29 24 23 26 26 23 22 25 28 28 27 23 18 16 18 20 21 21 24 27 26 24
20 21 21 19 19 19 19 21 21 19 17 16 16 16 15 15 14 13 12 12 13 14 14 15 15 15 16 17 18 18 17 16 18 19 20 20 20 20 20 19 19 20 22 23 24 25 28 30 30 29 29 29 29 27 25 26 26 22 21 24 27 28 28 25 21 19 18 17 17 17 18 20 21 23
Wind_Direction
91 88 90 90 80 74 72 67 59 51 49 40 33 39 35 21 12 354 345 347 340 346 347 332 323 327 327 326 326 324 324 327 327 326 325 326 327 327 326 326 326 326 326 327 328 328 328 329 329 326 324 324 324 322 318 314 312 311 311 308 302 301 302 300 297 295 292 288 284 282 282 282 281 281
99 96 94 90 80 73 67 59 52 45 43 42 35 34 34 30 25 1 331 311 322 336 335 325 323 324 324 325 324 324 327 327 326 326 326 327 327 326 326 327 327 327 327 327 327 326 327 328 327 326 327 328 327 326 323 319 315 313 310 306 302 301 300 297 294 293 292 288 283 280 279 278 277 278
103 100 91 84 75 66 61 55 48 40 38 38 34 30 23 24 22 352 332 302 306 323 324 320 322 322 321 323 324 326 326 326 327 326 326 326 326 326 326 327 328 327 326 326 326 325 326 327 326 328 332 333 331 330 326 322 318 315 312 308 305 305 302 299 296 294 292 289 285 281 278 277 275 275
110 103 94 89 79 70 64 54 47 38 31 28 27 23 10 6 5 345 335 312 299 311 317 317 320 321 321 323 326 325 324 326 327 326 326 326 326 325 326 327 327 326 326 326 326 325 325 325 328 335 339 337 335 332 329 325 322 320 317 312 309 307 304 302 300 295 290 287 285 282 278 276 274 273
116 107 97 91 85 79 74 59 50 41 28 26 19 13 5 355 352 345 337 324 308 311 316 319 320 322 324 324 325 324 324 327 328 326 327 326 325 325 325 326 327 326 326 327 327 326 324 326 337 344 344 341 337 334 332 328 325 322 319 314 310 308 306 303 301 298 293 287 283 281 279 276 273 271
119 113 103 95 88 80 72 59 51 40 30 28 19 8 2 347 341 342 336 327 314 310 315 320 321 323 325 323 323 325 325 326 328 328 327 326 325 325 325 326 326 326 326 327 327 325 324 332 345 347 346 343 338 333 330 328 326 323 320 316 311 307 306 304 301 299 295 287 281 279 278 276 273 270
122 115 107 100 96 88 81 66 52 43 34 28 17 2 354 344 338 339 335 327 315 308 311 317 318 320 322 321 323 325 325 326 329 329 326 325 325 324 324 326 326 326 327 326 326 325 324 334 342 341 342 343 339 334 330 326 324 323 321 318 314 308 307 305 302 298 295 290 284 279 277 274 272 270
130 123 117 113 108 101 98 79 54 48 37 25 17 359 347 343 339 336 332 324 315 309 308 311 314 317 319 321 324 325 325 327 329 327 325 324 325 324 325 326 327 327 326 325 324 323 321 329 336 336 338 340 339 337 334 326 320 321 322 320 316 312 310 307 303 299 296 293 289 285 281 277 273 269
138 131 126 124 119 115 107 85 55 41 33 20 9 353 343 342 338 333 331 325 319 313 308 309 314 319 321 323 325 327 329 330 327 325 326 325 325 325 325 326 327 327 326 324 323 320 316 323 330 331 333 336 337 338 337 330 322 321 322 322 321 321 319 315 308 302 296 291 288 286 285 283 277 270
143 138 135 130 123 118 102 81 57 38 40 28 6 350 342 341 338 334 334 330 323 318 314 314 318 321 324 325 326 328 332 330 326 326 327 326 326 326 325 325 327 327 325 323 323 320 315 318 325 329 332 336 338 338 337 333 325 322 323 322 323 325 324 319 311 303 296 290 287 283 282 281 276 270
145 144 140 134 131 131 122 110 100 49 91 65 6 345 338 342 341 339 337 332 328 326 323 321 321 322 324 326 326 328 330 328 327 330 330 326 326 327 325 324 325 326 324 322 324 321 314 315 324 330 334 337 338 338 338 334 329 325 322 319 318 319 319 317 312 305 298 293 288 284 280 276 271 267
152 148 145 150 157 166 174 169 130 73 69 53 12 347 345 352 350 345 339 334 332 330 326 323 322 322 323 324 326 328 331 332 332 333 331 324 322 325 324 323 324 325 324 322 323 322 315 316 325 331 335 338 340 340 339 336 333 330 325 320 317 314 313 312 309 303 298 293 288 284 281 276 269 264
158 153 161 176 182 189 185 158 97 62 47 26 14 5 2 0 352 343 335 330 329 327 324 324 324 323 321 324 329 331 333 334 331 330 328 322 320 321 320 321 324 325 323 321 322 321 317 320 326 331 335 338 341 341 339 334 330 329 327 324 319 314 310 309 307 302 296 291 287 282 279 274 269 264
169 172 185 194 193 191 183 159 82 33 8 354 354 354 350 341 329 322 318 315 319 320 320 323 325 322 320 324 329 329 328 329 327 326 324 320 320 321 319 320 323 326 325 322 320 320 321 324 327 331 334 337 341 342 340 335 329 326 325 324 321 316 310 307 306 304 298 291 287 283 277 271 267 263
181 186 196 210 248 263 232 248 321 335 331 327 331 333 330 321 308 302 300 301 308 313 315 321 324 319 316 322 325 324 323 324 323 322 321 319 319 321 320 319 321 326 328 324 319 320 325 328 329 330 333 336 339 341 340 337 333 329 325 323 322 319 313 306 303 303 301 294 287 283 279 271 265 260
191 189 193 208 238 249 256 296 310 313 318 320 319 318 320 316 302 292 289 290 296 302 305 313 319 317 316 319 319 318 317 318 318 318 318 318 319 318 317 314 315 322 327 325 320 319 324 328 330 329 331 335 338 339 338 336 335 333 329 326 324 323 318 311 305 300 298 295 289 284 279 272 265 258
193 188 188 194 209 227 242 258 265 273 293 304 304 305 314 319 312 301 294 287 285 290 296 301 308 314 316 313 311 313 314 312 312 313 315 318 319 316 315 313 314 320 326 326 321 317 321 328 329 326 328 334 337 337 336 334 334 334 332 329 328 327 322 317 312 306 300 298 294 287 277 269 264 258
182 180 189 202 208 218 230 231 234 258 286 291 289 307 320 322 323 317 309 297 287 292 299 300 303 310 311 307 307 313 314 310 309 310 311 316 318 316 315 315 316 321 327 328 321 312 319 328 328 323 326 333 336 336 336 334 333 333 332 330 329 329 325 319 314 311 307 305 302 291 276 265 262 257
178 181 193 207 205 203 215 227 240 270 297 298 311 341 333 324 323 321 319 321 319 313 311 308 307 308 309 307 309 314 316 313 313 314 315 320 321 319 318 319 320 323 329 329 320 307 318 327 325 321 326 332 335 336 336 335 334 334 334 332 329 328 327 321 314 309 306 307 309 300 276 261 258 255
187 195 203 206 205 211 226 239 252 274 294 307 339 342 332 323 325 328 331 332 328 324 322 319 312 308 310 316 320 323 324 324 325 327 328 330 329 323 321 321 322 325 329 330 322 308 316 325 324 321 328 334 335 335 337 337 336 336 336 334 330 328 327 324 317 308 300 303 310 307 281 258 255 253
194 201 205 200 204 223 232 241 255 271 288 317 342 333 326 326 330 329 320 318 323 329 327 320 313 312 321 330 333 335 337 338 340 339 334 332 330 325 323 323 324 325 327 330 327 315 316 325 325 323 330 335 335 335 338 339 339 340 340 337 334 332 330 327 321 309 297 297 306 309 287 259 252 252
201 205 203 196 198 213 223 234 250 264 281 315 338 330 326 329 330 320 313 320 332 335 326 321 321 327 336 340 339 341 343 344 344 340 333 331 330 327 326 325 323 323 325 332 332 322 320 326 327 327 332 334 335 337 339 341 343 344 342 340 339 339 339 336 332 325 312 303 302 304 291 262 252 252
207 214 211 207 207 211 218 231 245 253 264 301 330 332 331 326 318 310 314 326 333 327 323 326 333 340 343 343 343 345 345 343 342 340 338 338 336 332 329 326 325 322 324 332 333 327 324 326 328 332 339 335 334 338 341 342 344 346 345 342 342 346 349 348 346 342 334 321 309 304 295 269 252 249
208 215 218 221 222 223 230 240 244 245 252 277 303 320 324 314 305 303 313 324 326 323 323 328 336 341 344 345 345 344 343 342 342 343 346 346 342 336 330 327 326 320 319 329 334 331 326 325 325 332 340 335 328 335 339 341 345 346 345 344 346 350 353 354 350 344 337 327 314 306 298 277 252 241
209 214 221 228 227 222 226 236 241 241 250 266 286 310 314 306 302 303 307 314 320 323 325 330 338 342 344 346 345 344 343 342 342 345 347 347 344 340 334 328 326 321 321 332 338 333 326 326 327 329 335 337 331 332 336 341 345 347 347 348 350 352 353 352 349 345 342 335 322 314 302 279 251 235
217 217 222 229 227 217 215 228 240 244 254 265 282 309 310 303 304 302 301 307 314 318 321 328 338 343 345 346 345 343 341 339 342 346 345 343 343 343 340 335 330 325 327 335 339 333 328 330 332 330 332 336 336 335 337 342 345 347 350 351 351 352 353 351 347 346 348 345 336 329 314 281 247 227
229 222 222 223 220 214 215 231 249 252 255 263 281 303 304 302 304 300 300 304 307 310 318 328 340 344 344 344 344 341 339 339 344 347 344 342 343 343 343 342 339 336 337 338 338 337 336 336 337 336 333 333 337 339 340 342 343 345 348 350 352 354 355 354 352 350 350 350 342 333 321 283 238 216
238 213 208 207 205 208 220 241 255 257 259 265 275 286 290 297 298 296 299 302 305 314 322 329 341 344 341 342 342 338 337 341 346 347 345 343 344 345 345 345 344 345 344 342 341 343 342 340 341 342 340 337 340 343 339 339 342 345 346 348 352 355 357 357 358 355 355 0 354 339 333 320 212 199
203 181 180 187 196 209 232 253 260 262 263 265 270 275 280 286 285 287 293 296 302 318 321 325 343 344 337 338 339 336 338 344 346 344 344 344 344 346 347 346 346 348 347 345 345 348 347 344 344 346 343 339 342 348 344 342 344 348 350 350 350 354 358 0 1 0 5 16 19 2 359 5 8 195
196 182 179 187 202 220 242 258 263 263 261 261 266 269 274 277 275 277 284 285 291 307 311 323 346 339 331 335 336 334 338 345 344 342 343 343 344 346 348 347 347 349 349 349 350 350 348 347 349 349 344 340 342 351 355 353 349 350 355 356 354 355 359 2 5 9 13 25 47 58 44 28 26 27
217 213 210 219 227 238 251 258 260 259 256 258 263 267 272 274 271 271 272 269 275 288 294 320 344 333 327 334 334 331 337 342 341 340 342 342 342 343 347 347 346 347 348 351 353 351 348 349 352 351 346 341 342 350 359 2 355 352 356 360 360 0 1 2 7 11 14 26 49 61 57 49 47 51
221 228 241 248 248 249 253 255 257 258 259 263 269 272 272 270 269 270 267 261 268 277 284 319 335 323 321 328 328 329 335 338 337 338 341 341 340 342 346 346 345 344 345 347 352 352 351 351 353 352 347 343 341 348 358 3 1 359 360 0 2 6 6 5 6 9 15 24 35 42 44 42 43 49
218 225 235 244 249 249 249 252 258 260 262 265 268 268 266 264 267 274 272 272 282 285 288 312 317 310 314 322 324 329 335 334 334 337 340 339 338 340 344 345 343 342 341 342 348 351 351 352 353 352 350 347 342 345 355 1 4 5 5 3 3 6 7 8 8 11 17 22 20 22 30 32 32 35
215 227 231 233 238 240 243 248 254 257 260 265 267 267 267 271 280 282 277 279 288 288 288 299 303 303 312 319 324 330 331 330 332 334 335 335 336 339 342 342 341 341 339 339 345 348 349 352 352 351 352 353 350 348 352 358 4 7 7 7 7 6 7 9 11 14 20 23 17 16 21 22 22 26
208 220 227 230 236 242 248 252 255 260 265 268 270 271 271 272 273 273 273 275 277 279 284 291 295 305 315 319 325 330 328 325 326 326 329 335 336 337 339 339 338 338 337 338 344 346 346 350 352 350 350 353 354 352 353 357 4 7 7 9 11 10 8 9 12 16 22 25 21 17 16 14 14 18
209 219 230 240 247 250 256 259 260 264 267 267 265 265 266 267 264 262 264 267 266 268 278 284 292 308 320 324 327 325 320 315 314 317 328 337 336 335 337 337 336 336 336 337 342 344 345 350 353 351 347 349 352 354 351 351 358 3 5 7 13 14 11 12 16 19 22 23 21 19 14 7 7 13
208 219 231 244 249 250 254 257 259 262 263 261 259 258 260 266 268 267 269 269 266 268 274 278 294 322 327 325 322 315 309 308 311 320 333 336 333 333 335 335 334 334 333 335 340 343 344 349 352 352 349 347 347 348 344 343 348 358 2 4 11 16 16 15 18 20 20 20 20 20 16 10 11 19
214 222 231 241 248 252 256 257 259 261 259 254 252 254 260 269 274 276 278 274 269 274 277 278 311 326 317 311 307 302 303 311 321 329 333 332 332 335 334 331 330 330 330 333 338 341 343 347 350 350 349 347 346 340 336 336 341 351 358 0 5 13 19 21 21 19 17 18 19 19 22 24 21 23
221 227 234 241 247 254 259 260 263 266 263 257 255 258 262 267 269 270 273 273 271 273 273 282 319 317 305 298 296 296 303 317 327 328 328 331 336 336 330 326 327 328 329 332 335 338 342 346 349 349 345 341 339 336 332 329 333 344 355 359 2 10 18 23 25 22 19 18 16 14 21 30 29 28
225 229 234 240 246 252 256 259 263 267 266 258 256 257 257 259 262 265 273 281 282 274 270 296 316 309 296 289 290 295 308 324 324 322 326 334 336 331 326 324 326 329 330 332 332 335 338 342 347 347 344 341 341 342 341 338 339 349 358 360 1 7 15 20 25 26 24 23 19 13 17 24 24 26
231 235 238 241 244 249 254 257 261 266 266 260 260 263 261 260 262 265 266 268 267 270 283 299 301 295 288 287 291 304 321 325 321 322 332 334 328 322 322 325 329 331 332 330 329 331 335 339 344 348 347 345 345 347 349 348 342 348 359 2 360 0 4 12 22 27 27 28 27 21 17 19 21 25
231 236 241 245 245 246 248 252 257 263 265 263 262 265 265 264 266 266 263 259 260 270 281 285 285 287 292 298 306 314 317 318 321 328 330 324 318 317 323 330 332 330 328 326 326 329 333 338 344 348 348 347 346 347 350 345 334 339 356 3 1 359 357 359 11 22 26 30 35 33 25 21 22 25
229 233 240 244 245 244 244 246 252 257 259 259 260 262 264 267 268 267 266 266 269 274 277 279 283 291 297 302 306 308 310 315 321 322 318 314 313 318 324 327 327 324 323 323 326 331 335 339 344 347 346 345 344 343 343 342 338 339 353 1 1 1 359 354 355 8 18 27 37 43 41 40 41 43
234 237 239 239 239 240 242 245 249 253 256 261 264 265 267 268 267 266 267 268 270 274 276 278 281 285 288 293 297 297 298 303 308 309 308 308 311 312 313 316 317 318 319 323 326 330 334 338 342 345 344 343 342 340 340 341 341 342 354 1 2 2 3 0 354 355 6 18 29 38 43 48 51 53
235 242 243 240 238 239 243 248 251 254 257 260 261 262 265 268 268 266 266 267 270 275 276 277 279 282 285 289 291 290 291 294 298 301 302 305 309 311 312 313 315 316 321 325 326 328 331 335 339 342 342 341 341 339 339 341 343 345 355 2 1 1 3 5 5 2 3 9 19 27 34 41 46 49